N5ZP Weather Reports


time (UTC)temp
C
wind
direction
speed
KPH
gust
KPH
rain 1hr
cm
rain 24hr
cm
rain mn
cm
humidity
%
barometer
mb
20260509211259 30 200 1.6 3.2 0.00 0.00 0.00 52 1005.6
20260509210756 31 161 4.8 9.7 0.00 0.00 0.00 52 1005.5
20260509210254 31 284 3.2 6.4 0.00 0.00 0.00 50 1005.6
20260509205753 31 89 3.2 4.8 0.00 0.00 0.00 49 1005.9
20260509205248 31 228 0.0 6.4 0.00 0.00 0.00 47 1005.8
20260509204745 31 284 3.2 6.4 0.00 0.00 0.00 47 1005.8
20260509204241 31 274 0.0 3.2 0.00 0.00 0.00 51 1005.8
20260509203737 32 181 3.2 4.8 0.00 0.00 0.00 47 1006.0
20260509203235 32 238 0.0 1.6 0.00 0.00 0.00 45 1006.1
20260509202731 32 211 3.2 3.2 0.00 0.00 0.00 44 1006.4
20260509202227 31 242 1.6 3.2 0.00 0.00 0.00 47 1006.3
20260509201726 31 242 0.0 3.2 0.00 0.00 0.00 50 1006.4
20260509201223 30 7 1.6 6.4 0.00 0.00 0.00 49 1006.5
20260509200721 30 51 4.8 9.7 0.00 0.00 0.00 52 1006.4
20260509200221 31 73 3.2 4.8 0.00 0.00 0.00 49 1006.5
20260509195718 31 248 1.6 4.8 0.00 0.00 0.00 49 1006.5
20260509195213 32 202 1.6 20.9 0.00 0.00 0.00 51 1006.7
20260509194712 31 238 0.0 1.6 0.00 0.00 0.00 46 1006.7
20260509194209 31 236 0.0 1.6 0.00 0.00 0.00 53 1006.7
20260509193706 31 216 3.2 6.4 0.00 0.00 0.00 48 1006.7
20260509193206 30 234 3.2 4.8 0.00 0.00 0.00 52 1006.9
20260509192703 30 266 4.8 4.8 0.00 0.00 0.00 58 1007.1
20260509192158 30 176 3.2 6.4 0.00 0.00 0.00 53 1006.9
20260509191653 30 357 4.8 4.8 0.00 0.00 0.00 53 1007.0
20260509191150 30 333 3.2 6.4 0.00 0.00 0.00 50 1006.9
20260509190646 31 58 3.2 9.7 0.00 0.00 0.00 51 1006.9
20260509190143 31 234 0.0 1.6 0.00 0.00 0.00 54 1007.1
20260509185641 30 240 1.6 4.8 0.00 0.00 0.00 51 1007.2
20260509185137 30 201 3.2 4.8 0.00 0.00 0.00 55 1007.0
20260509184635 31 220 0.0 1.6 0.00 0.00 0.00 47 1007.3
20260509184131 31 226 0.0 3.2 0.00 0.00 0.00 52 1007.5
20260509183628 30 226 0.0 3.2 0.00 0.00 0.00 54 1007.4
20260509183123 30 255 4.8 6.4 0.00 0.00 0.00 56 1007.4
20260509182619 30 238 1.6 6.4 0.00 0.00 0.00 51 1007.6
20260509182117 30 308 1.6 4.8 0.00 0.00 0.00 50 1007.5
20260509181615 30 256 8.0 9.7 0.00 0.00 0.00 52 1007.5
20260509181111 30 226 1.6 3.2 0.00 0.00 0.00 55 1007.5
20260509180608 30 235 1.6 4.8 0.00 0.00 0.00 53 1007.6
20260509180105 29 244 3.2 6.4 0.00 0.00 0.00 53 1007.9
20260509175600 29 4 4.8 9.7 0.00 0.00 0.00 56 1007.6
20260509175058 29 337 4.8 11.3 0.00 0.00 0.00 53 1007.6
20260509174554 30 14 8.0 11.3 0.00 0.00 0.00 51 1007.8
20260509174050 30 238 0.0 3.2 0.00 0.00 0.00 55 1007.8
20260509173549 30 261 8.0 12.9 0.00 0.00 0.00 54 1007.9
20260509173046 30 245 3.2 6.4 0.00 0.00 0.00 55 1007.7
20260509172544 31 263 1.6 3.2 0.00 0.00 0.00 51 1007.8
20260509172039 30 238 6.4 6.4 0.00 0.00 0.00 56 1008.1
20260509171535 30 226 3.2 4.8 0.00 0.00 0.00 57 1007.9
20260509171032 30 247 4.8 11.3 0.00 0.00 0.00 54 1007.9
20260509170527 29 251 6.4 9.7 0.00 0.00 0.00 58 1008.1
20260509170023 28 240 3.2 4.8 0.00 0.00 0.00 56 1008.1
20260509165522 30 245 6.4 11.3 0.00 0.00 0.00 53 1008.0
20260509165018 29 234 4.8 9.7 0.00 0.00 0.00 59 1008.2
20260509164514 28 10 6.4 6.4 0.00 0.00 0.00 55 1008.4
20260509164010 28 246 3.2 9.7 0.00 0.00 0.00 56 1008.2
20260509163508 28 346 8.0 12.9 0.00 0.00 0.00 55 1008.3
20260509163007 28 300 6.4 11.3 0.00 0.00 0.00 55 1008.4
20260509162506 28 234 4.8 9.7 0.00 0.00 0.00 57 1008.3
20260509162001 28 234 3.2 14.5 0.00 0.00 0.00 58 1008.4
20260509161458 28 227 6.4 14.5 0.00 0.00 0.00 59 1008.2
20260509160953 27 247 8.0 14.5 0.00 0.00 0.00 58 1008.3
20260509160449 27 356 4.8 6.4 0.00 0.00 0.00 58 1008.2
20260509155944 27 241 6.4 11.3 0.00 0.00 0.00 58 1008.3
20260509155441 27 233 3.2 11.3 0.00 0.00 0.00 59 1008.4
20260509154938 27 270 3.2 6.4 0.00 0.00 0.00 60 1008.3
20260509154434 27 247 6.4 11.3 0.00 0.00 0.00 60 1008.2
20260509153931 27 191 4.8 16.1 0.00 0.00 0.00 59 1008.1
20260509153428 27 261 3.2 9.7 0.00 0.00 0.00 59 1008.2
20260509152925 26 236 3.2 6.4 0.00 0.00 0.00 61 1008.3
20260509152421 26 234 6.4 12.9 0.00 0.00 0.00 61 1008.2
20260509151918 27 228 1.6 11.3 0.00 0.00 0.00 60 1008.1
20260509151414 27 307 3.2 6.4 0.00 0.00 0.00 60 1008.4
20260509150912 26 254 1.6 6.4 0.00 0.00 0.00 61 1008.4
20260509150410 26 256 3.2 11.3 0.00 0.00 0.00 62 1008.3
20260509145908 27 247 3.2 11.3 0.00 0.00 0.00 60 1008.5
20260509145407 27 242 3.2 9.7 0.00 0.00 0.00 57 1008.6
20260509144903 27 225 3.2 3.2 0.00 0.00 0.00 61 1008.6
20260509144400 26 237 3.2 6.4 0.00 0.00 0.00 61 1008.2
20260509143857 26 241 4.8 6.4 0.00 0.00 0.00 61 1008.5
20260509143355 27 232 1.6 9.7 0.00 0.00 0.00 60 1008.7
20260509142851 27 228 0.0 4.8 0.00 0.00 0.00 63 1008.7
20260509142348 27 223 1.6 4.8 0.00 0.00 0.00 62 1008.5
20260509141843 26 244 4.8 9.7 0.00 0.00 0.00 65 1008.5
20260509141341 26 267 6.4 9.7 0.00 0.00 0.00 67 1008.5
20260509140837 25 207 3.2 9.7 0.00 0.00 0.00 71 1008.4
20260509140334 23 234 1.6 6.4 0.00 0.00 0.00 72 1008.4
20260509135832 23 253 3.2 4.8 0.00 0.00 0.00 72 1008.5
20260509135329 24 230 3.2 6.4 0.00 0.00 0.00 70 1008.5
20260509134826 23 225 1.6 6.4 0.00 0.00 0.00 73 1008.5
20260509134323 23 240 3.2 12.9 0.00 0.00 0.00 73 1008.6
20260509133820 23 270 6.4 9.7 0.00 0.00 0.00 73 1008.8
20260509133317 23 234 1.6 6.4 0.00 0.00 0.00 73 1008.6
20260509132816 22 218 6.4 6.4 0.00 0.00 0.00 74 1008.6
20260509132314 22 226 4.8 6.4 0.00 0.00 0.00 74 1008.5
20260509131810 22 231 1.6 4.8 0.00 0.00 0.00 75 1008.6
20260509131307 22 218 3.2 6.4 0.00 0.00 0.00 74 1008.6
20260509130803 23 234 4.8 6.4 0.00 0.00 0.00 73 1008.5
20260509130259 22 235 3.2 3.2 0.00 0.00 0.00 75 1008.4
20260509125756 22 241 1.6 3.2 0.00 0.00 0.00 77 1008.3
20260509125253 21 242 1.6 3.2 0.00 0.00 0.00 78 1008.3
20260509124749 21 260 3.2 6.4 0.00 0.00 0.00 78 1008.1
20260509124245 21 248 3.2 6.4 0.00 0.00 0.00 78 1008.2
20260509123744 21 236 1.6 4.8 0.00 0.00 0.00 78 1008.6
20260509123241 20 240 1.6 1.6 0.00 0.00 0.00 79 1008.3
20260509122736 20 232 1.6 3.2 0.00 0.00 0.00 82 1008.4
20260509122233 18 237 0.0 0.0 0.00 0.00 0.00 85 1008.3
20260509121730 18 237 0.0 0.0 0.00 0.00 0.00 85 1008.1
20260509121228 18 236 0.0 1.6 0.00 0.00 0.00 87 1008.1
20260509120726 18 239 1.6 3.2 0.00 0.00 0.00 87 1008.0
20260509120223 17 238 1.6 1.6 0.00 0.00 0.00 88 1007.9
20260509115721 17 237 1.6 1.6 0.00 0.00 0.00 89 1007.8
20260509115218 17 236 0.0 1.6 0.00 0.00 0.00 89 1008.0
20260509114716 17 236 0.0 1.6 0.00 0.00 0.00 88 1007.8
20260509114215 17 235 0.0 1.6 0.00 0.00 0.00 89 1007.7
20260509113713 17 237 3.2 6.4 0.00 0.00 0.00 89 1007.6
20260509113210 17 239 3.2 3.2 0.00 0.00 0.00 89 1007.3
20260509112706 17 241 1.6 3.2 0.00 0.00 0.00 89 1007.3
20260509112203 17 239 0.0 1.6 0.00 0.00 0.00 89 1007.1
20260509111700 17 241 1.6 1.6 0.00 0.00 0.00 89 1007.3
20260509111157 17 231 0.0 0.0 0.00 0.00 0.00 88 1007.2
20260509110655 17 231 0.0 0.0 0.00 0.00 0.00 87 1006.9
20260509110151 17 231 0.0 0.0 0.00 0.00 0.00 87 1007.0
20260509105649 17 230 0.0 1.6 0.00 0.00 0.00 86 1007.2
20260509105147 18 236 0.0 0.0 0.00 0.00 0.00 85 1007.0
20260509104644 18 254 1.6 1.6 0.00 0.00 0.00 85 1007.1
20260509104140 18 235 0.0 1.6 0.00 0.00 0.00 85 1007.4
20260509103638 18 229 1.6 3.2 0.00 0.00 0.00 85 1007.3
20260509103136 18 284 3.2 4.8 0.00 0.00 0.00 85 1007.1
20260509102633 18 235 3.2 4.8 0.00 0.00 0.00 84 1007.7
20260509102130 19 237 1.6 3.2 0.00 0.00 0.00 84 1007.4
20260509101627 19 237 4.8 6.4 0.00 0.00 0.00 84 1007.5
20260509101123 20 220 4.8 9.7 0.00 0.00 0.00 84 1007.5
20260509100621 20 237 3.2 3.2 0.00 0.00 0.00 83 1007.5
20260509100118 20 226 3.2 6.4 0.00 0.00 0.00 84 1007.4
20260509095614 20 221 3.2 6.4 0.00 0.00 0.00 83 1007.5
20260509095112 20 226 0.0 0.0 0.00 0.00 0.00 81 1007.1
20260509094607 20 257 0.0 3.2 0.00 0.00 0.00 81 1006.7
20260509094105 20 262 3.2 9.7 0.00 0.00 0.00 80 1006.6
20260509093604 20 11 3.2 4.8 0.00 0.00 0.00 80 1006.3
20260509093100 20 23 3.2 9.7 0.00 0.00 0.00 79 1006.0
20260509092558 20 356 6.4 6.4 0.00 0.00 0.00 78 1006.0
20260509092056 20 251 3.2 4.8 0.00 0.00 0.00 76 1005.7
20260509091554 20 56 4.8 6.4 0.00 0.00 0.00 75 1005.6
20260509091050 21 31 8.0 14.5 0.00 0.00 0.00 75 1005.5
20260509090548 20 83 3.2 16.1 0.00 0.00 0.00 72 1005.2
20260509090045 20 148 8.0 12.9 0.00 0.00 0.00 71 1005.0
20260509085542 21 328 4.8 11.3 0.00 0.00 0.00 65 1004.5
20260509085038 20 6 6.4 9.7 0.00 0.00 0.00 65 1004.4
20260509084535 20 7 14.5 17.7 0.00 0.00 0.00 70 1004.4
20260509084032 20 303 3.2 3.2 0.00 0.00 0.00 68 1003.5
20260509083530 19 195 3.2 6.4 0.00 0.00 0.00 72 1003.5
20260509083026 19 218 1.6 4.8 0.00 0.00 0.00 77 1003.7
20260509082524 19 214 1.6 1.6 0.00 0.00 0.00 77 1003.5
20260509082021 19 223 1.6 4.8 0.00 0.00 0.00 78 1003.6
20260509081518 19 211 3.2 4.8 0.00 0.00 0.00 78 1003.3
20260509081014 19 228 0.0 0.0 0.00 0.00 0.00 80 1003.6
20260509080513 19 223 3.2 6.4 0.00 0.00 0.00 82 1004.0
20260509080011 19 239 0.0 3.2 0.00 0.00 0.00 82 1003.8
20260509075508 20 222 1.6 3.2 0.00 0.00 0.00 80 1004.2
20260509075006 20 189 3.2 3.2 0.00 0.00 0.00 80 1004.6
20260509074502 20 215 1.6 4.8 0.00 0.00 0.00 77 1005.1
20260509073959 20 245 1.6 4.8 0.00 0.00 0.00 73 1005.7
20260509073455 20 220 0.0 1.6 0.00 0.00 0.00 76 1006.1
20260509072951 20 224 0.0 3.2 0.00 0.00 0.00 78 1006.5
20260509072449 20 314 0.0 3.2 0.00 0.00 0.00 81 1006.8
20260509071945 20 235 1.6 1.6 0.00 0.00 0.00 81 1007.0
20260509071442 20 216 1.6 6.4 0.00 0.00 0.00 84 1007.4
20260509070940 20 206 1.6 3.2 0.00 0.00 0.00 87 1007.4
20260509070436 20 240 6.4 9.7 0.00 0.00 0.00 91 1007.6
20260509065932 20 199 3.2 6.4 0.00 0.00 0.00 93 1007.8
20260509065428 20 219 3.2 6.4 0.00 0.00 0.00 94 1007.9
20260509064924 20 207 1.6 4.8 0.00 0.00 0.00 94 1008.4
20260509064422 20 219 1.6 3.2 0.00 0.00 0.00 94 1008.3
20260509063920 20 208 3.2 6.4 0.00 0.00 0.00 94 1008.3
20260509063415 20 234 3.2 4.8 0.00 0.00 0.00 94 1008.3
20260509062907 20 229 3.2 9.7 0.00 0.00 0.00 94 1008.6
20260509062404 20 208 3.2 3.2 0.00 0.00 0.00 94 1009.0
20260509061901 20 221 1.6 3.2 0.00 0.00 0.00 94 1008.9
20260509061359 19 224 3.2 3.2 0.00 0.00 0.00 94 1009.0
20260509060856 19 234 4.8 6.4 0.00 0.00 0.00 94 1009.3
20260509060353 19 221 3.2 9.7 0.00 0.00 0.00 93 1009.2
20260509055848 19 236 3.2 6.4 0.00 0.00 0.00 93 1009.1
20260509055344 19 236 3.2 6.4 0.00 0.00 0.00 92 1009.3
20260509054841 19 240 0.0 0.0 0.00 0.00 0.00 92 1009.1
20260509054338 20 230 0.0 0.0 0.00 0.00 0.00 92 1008.8
20260509053836 20 235 0.0 0.0 0.00 0.00 0.00 91 1008.7
20260509053333 20 219 0.0 0.0 0.00 0.00 0.00 91 1008.6
20260509052831 20 229 0.0 1.6 0.00 0.00 0.00 91 1008.9
20260509052329 20 238 0.0 0.0 0.00 0.00 0.00 91 1009.0
20260509051826 20 242 0.0 3.2 0.00 0.00 0.00 91 1008.9
20260509051324 20 257 4.8 9.7 0.00 0.00 0.00 91 1008.8
20260509050820 20 290 6.4 14.5 0.00 0.00 0.00 91 1009.2
20260509050317 20 19 4.8 6.4 0.00 0.00 0.00 92 1009.4
20260509045814 20 288 1.6 4.8 0.00 0.64 0.64 92 1009.0
20260509045311 20 346 4.8 6.4 0.00 0.64 0.64 92 1008.8
20260509044808 20 278 3.2 4.8 0.00 0.64 0.64 91 1008.2
20260509044306 20 226 0.0 1.6 0.00 0.64 0.64 91 1007.6
20260509043802 20 226 0.0 0.0 0.00 0.64 0.64 91 1007.7
20260509043258 20 222 0.0 0.0 0.00 0.64 0.64 91 1007.6
20260509042754 20 225 0.0 1.6 0.00 0.64 0.64 91 1007.4
20260509042250 20 223 0.0 0.0 0.00 0.64 0.64 91 1007.4
20260509041747 20 218 0.0 3.2 0.00 0.64 0.64 91 1007.3
20260509041244 20 220 0.0 1.6 0.00 0.64 0.64 90 1007.2
20260509040743 20 216 1.6 3.2 0.00 0.64 0.64 90 1007.3
20260509040239 20 217 0.0 3.2 0.00 0.64 0.64 90 1007.5
20260509035736 20 220 0.0 1.6 0.00 0.64 0.64 90 1007.3
20260509035233 20 231 0.0 0.0 0.00 0.64 0.64 90 1007.3
20260509034730 20 292 0.0 0.0 0.00 0.64 0.64 89 1007.3
20260509034228 20 211 1.6 3.2 0.00 0.64 0.64 89 1007.5
20260509033725 20 225 0.0 1.6 0.00 0.64 0.64 89 1007.5
20260509033222 20 212 1.6 3.2 0.00 0.64 0.64 89 1007.4
20260509032719 20 214 1.6 4.8 0.00 0.64 0.64 88 1007.3
20260509032216 20 272 1.6 3.2 0.00 0.64 0.64 88 1007.1
20260509031713 21 182 0.0 1.6 0.00 0.64 0.64 87 1006.9
20260509031210 21 260 0.0 3.2 0.00 0.64 0.64 87 1006.9
20260509030708 21 246 1.6 1.6 0.00 0.64 0.64 86 1006.5
20260509030205 21 210 1.6 3.2 0.00 0.64 0.64 86 1006.3
20260509025701 21 218 1.6 4.8 0.00 0.64 0.64 86 1006.1
20260509025158 21 193 1.6 3.2 0.00 0.64 0.64 85 1005.9
20260509024653 21 215 3.2 6.4 0.00 0.64 0.64 85 1005.7
20260509024149 21 220 3.2 4.8 0.00 0.64 0.64 85 1005.7
20260509023647 21 160 4.8 11.3 0.00 0.64 0.64 85 1005.4
20260509023144 21 154 6.4 9.7 0.00 0.64 0.64 85 1005.0
20260509022640 21 206 3.2 6.4 0.00 0.64 0.64 85 1005.1
20260509022138 21 187 3.2 4.8 0.00 0.64 0.64 85 1005.2
20260509021635 21 183 3.2 11.3 0.00 0.64 0.64 85 1005.0
20260509021132 21 212 4.8 6.4 0.00 0.64 0.64 85 1005.0
20260509020630 21 209 3.2 4.8 0.00 0.64 0.64 85 1005.0
20260509020126 21 166 4.8 9.7 0.00 0.64 0.64 84 1004.7
20260509015626 21 206 3.2 6.4 0.00 0.64 0.64 84 1004.7
20260509015123 21 208 6.4 9.7 0.00 0.64 0.64 84 1004.8
20260509014619 21 209 3.2 6.4 0.00 0.64 0.64 84 1005.0
20260509014115 21 186 4.8 6.4 0.00 0.64 0.64 83 1005.5
20260509013613 21 220 3.2 4.8 0.00 0.64 0.64 83 1005.4
20260509013108 21 218 1.6 3.2 0.00 0.64 0.64 82 1005.5
20260509012605 21 192 3.2 4.8 0.00 0.64 0.64 82 1005.7
20260509012102 22 215 1.6 3.2 0.00 0.64 0.64 81 1005.6
20260509011600 22 214 1.6 1.6 0.00 0.64 0.64 80 1005.7
20260509011056 22 197 1.6 4.8 0.00 0.64 0.64 80 1005.6
20260509010554 22 217 0.0 6.4 0.00 0.64 0.64 80 1005.5
20260509010051 22 200 3.2 4.8 0.00 0.64 0.64 79 1005.5
20260509005549 22 218 1.6 3.2 0.00 0.64 0.64 79 1005.3
20260509005044 22 189 3.2 6.4 0.00 0.64 0.64 79 1005.3
20260509004541 22 207 1.6 4.8 0.00 0.64 0.64 78 1005.2
20260509004038 22 205 3.2 4.8 0.00 0.64 0.64 78 1005.3
20260509003536 23 209 3.2 4.8 0.00 0.64 0.64 77 1005.0
20260509003033 23 211 3.2 12.9 0.00 0.64 0.64 77 1005.2
20260509002530 23 182 6.4 11.3 0.00 0.64 0.64 77 1005.0
20260509002028 23 194 4.8 11.3 0.00 0.64 0.64 77 1005.0
20260509001525 23 229 3.2 6.4 0.00 0.64 0.64 78 1004.9
20260509001021 23 211 4.8 6.4 0.00 0.64 0.64 77 1005.0
20260509000520 23 178 4.8 6.4 0.00 0.64 0.64 76 1005.1
20260509000015 23 224 3.2 9.7 0.00 0.64 0.64 76 1005.1
20260508235513 23 215 3.2 6.4 0.00 0.64 0.64 76 1005.1
20260508235009 24 218 3.2 6.4 0.00 0.64 0.64 73 1005.3
20260508234506 23 224 1.6 6.4 0.00 0.64 0.64 74 1005.4
20260508234003 23 202 3.2 6.4 0.00 0.64 0.64 74 1005.4
20260508233503 24 165 6.4 9.7 0.00 0.64 0.64 72 1005.5
20260508232959 24 173 9.7 11.3 0.00 0.64 0.64 71 1005.5
20260508232456 24 177 4.8 4.8 0.00 0.64 0.64 72 1005.8
20260508231953 24 197 4.8 6.4 0.00 0.64 0.64 73 1005.5
20260508231451 24 182 3.2 11.3 0.00 0.64 0.64 72 1005.5
20260508230948 25 203 3.2 11.3 0.00 0.64 0.64 71 1005.6
20260508230444 25 209 1.6 6.4 0.00 0.64 0.64 70 1005.7
20260508225941 24 190 3.2 9.7 0.00 0.64 0.64 70 1005.8
20260508225438 24 192 8.0 17.7 0.00 0.64 0.64 70 1005.5
20260508224935 24 217 3.2 9.7 0.00 0.64 0.64 70 1005.5
20260508224433 24 224 3.2 6.4 0.00 0.64 0.64 71 1005.6
20260508223930 24 184 8.0 12.9 0.00 0.64 0.64 70 1005.4
20260508223428 25 165 4.8 6.4 0.00 0.64 0.64 70 1005.5
20260508222925 25 151 6.4 14.5 0.00 0.64 0.64 69 1005.5
20260508222423 25 225 4.8 11.3 0.00 0.64 0.64 69 1005.6
20260508221919 24 179 6.4 9.7 0.00 0.64 0.64 70 1005.7
20260508221414 24 175 4.8 12.9 0.00 0.64 0.64 71 1005.7
20260508220911 24 185 8.0 16.1 0.00 0.64 0.64 68 1005.8
20260508220407 25 154 9.7 17.7 0.00 0.64 0.64 69 1005.4
20260508215904 25 176 4.8 16.1 0.00 0.64 0.64 68 1005.4
20260508215401 25 198 3.2 6.4 0.00 0.64 0.64 68 1005.4
20260508214857 25 156 9.7 12.9 0.00 0.64 0.64 66 1005.7
20260508214355 25 214 4.8 12.9 0.00 0.64 0.64 67 1005.6
20260508213851 25 198 3.2 6.4 0.00 0.64 0.64 69 1005.5
20260508213348 25 203 6.4 11.3 0.00 0.64 0.64 66 1005.8
20260508212844 25 172 6.4 11.3 0.00 0.64 0.64 67 1005.8
20260508212341 25 123 8.0 12.9 0.00 0.64 0.64 66 1005.8
20260508211836 25 165 12.9 20.9 0.00 0.64 0.64 65 1006.0